Eau Claire, WI

4:41 AM CDT on July 26, 2017 (GMT -0500)
Chippewa Valley Regional

Weather History for KEAU - September, 2013

Change the Weather History Date:

Tuesday, September 10, 2013

  Actual Average Record
Temperature  
Mean Temperature 77 °F 63 °F  
Max Temperature 85 °F 74 °F 101 °F (1931)
Min Temperature 68 °F 52 °F 31 °F (1917)
Degree Days  
Heating Degree Days 0 4  
Month to date heating degree days 11 32  
Since 1 July heating degree days 49 71  
Cooling Degree Days 12 2  
Month to date cooling degree days 62 27  
Year to date cooling degree days 628 554  
Growing Degree Days 27 (Base 50)    
Moisture  
Dew Point 66 °F    
Average Humidity 71    
Maximum Humidity 93    
Minimum Humidity 48    
Precipitation  
Precipitation 0.01 in 0.13 in 5.98 in (2000)
Month to date precipitation 0.01 1.26  
Year to date precipitation 27.65 23.38  
Snow  
Snow 0.00 in 0.00 in 0.00 in ()
Month to date snowfall 0.0 0.0  
Since 1 July snowfall 0.0 0.0  
Since 1 September snowfall 0.0 0.0  
Snow Depth 0.00 in    
Sea Level Pressure  
Sea Level Pressure 29.87 in    
Wind  
Wind Speed 6 mph (West)    
Max Wind Speed 14 mph    
Max Gust Speed 17 mph    
Visibility 10 miles    
Events      
T = Trace of Precipitation, MM = Missing Value Source: NWS Daily Summary

Daily Weather History Graph

Daily Weather History Graph

Search for Another Location

Airport or City:

Trip Planner

Search our weather history database for the weather conditions in past years. The results will help you decide how hot, cold, wet, or windy it might be!

Date:

Astronomy

Sep. 10, 2013 Rise Set
Actual Time 6:39 AM CDT 7:25 PM CDT
Civil Twilight 6:09 AM CDT 7:55 PM CDT
Nautical Twilight 5:34 AM CDT 8:30 PM CDT
Astronomical Twilight 4:57 AM CDT 9:07 PM CDT
Moon 12:20 PM CDT (9/10) 10:13 PM CDT (9/10)
Length of Visible Light 13h 45m
Length of Day
12h 46m
Waxing Crescent, 28% of the Moon is Illuminated
Sep 10
Waxing Crescent
Sep 12
First Quarter
Sep 19
Full
Sep 26
Last Quarter
Oct 4
New

Hourly Weather History & Observations

Time (CDT) Temp. Heat Index Dew Point Humidity Pressure Visibility Wind Dir Wind Speed Gust Speed Precip Events Conditions
12:56 AM 79.0 °F - 66.9 °F 66% 29.72 in 10.0 mi WSW 5.8 mph - N/A   Clear
1:56 AM 75.9 °F - 68.0 °F 76% 29.75 in 10.0 mi Calm Calm - N/A   Clear
2:56 AM 73.0 °F - 68.0 °F 84% 29.76 in 10.0 mi WSW 4.6 mph - N/A   Clear
3:56 AM 73.0 °F - 70.0 °F 90% 29.78 in 8.0 mi WSW 4.6 mph - N/A   Partly Cloudy
4:56 AM 73.0 °F - 70.0 °F 90% 29.79 in 7.0 mi West 9.2 mph - N/A   Partly Cloudy
5:56 AM 72.0 °F - 69.1 °F 91% 29.80 in 8.0 mi West 6.9 mph - N/A   Clear
6:56 AM 70.0 °F - 66.9 °F 90% 29.83 in 9.0 mi West 4.6 mph - N/A   Clear
7:56 AM 71.1 °F - 66.9 °F 87% 29.86 in 10.0 mi West 4.6 mph - N/A   Clear
8:56 AM 73.9 °F - 66.9 °F 79% 29.87 in 10.0 mi WNW 6.9 mph - N/A   Scattered Clouds
9:08 AM 73.4 °F - 66.2 °F 78% 29.88 in 10.0 mi WNW 8.1 mph - N/A   Mostly Cloudy
9:24 AM 73.4 °F - 66.2 °F 78% 29.88 in 10.0 mi West 4.6 mph - N/A   Mostly Cloudy
9:34 AM 75.2 °F - 66.2 °F 73% 29.89 in 10.0 mi Variable 4.6 mph - N/A   Scattered Clouds
9:56 AM 77.0 °F - 66.0 °F 69% 29.87 in 10.0 mi WSW 6.9 mph - N/A   Clear
10:56 AM 78.1 °F - 64.9 °F 64% 29.87 in - SSW 5.8 mph - N/A   Clear
11:56 AM - - - N/A% 29.89 in 10.0 mi SW 8.1 mph - N/A   Mostly Cloudy
12:56 PM 84.0 °F 84.5 °F 62.1 °F 47% 29.88 in 10.0 mi West 10.4 mph - N/A   Mostly Cloudy
1:56 PM 81.0 °F 82.2 °F 63.0 °F 54% 29.89 in 10.0 mi WNW 9.2 mph - N/A   Mostly Cloudy
2:56 PM 78.1 °F - 63.0 °F 60% 29.90 in 10.0 mi WNW 6.9 mph - N/A   Overcast
3:56 PM 77.0 °F - 63.0 °F 62% 29.90 in 10.0 mi West 5.8 mph - N/A   Overcast
4:56 PM 77.0 °F - 64.0 °F 64% 29.90 in 10.0 mi WSW 3.5 mph - N/A   Overcast
5:56 PM 77.0 °F - 63.0 °F 62% 29.91 in 10.0 mi WSW 5.8 mph - N/A   Overcast
6:56 PM 75.0 °F - 64.9 °F 71% 29.90 in 10.0 mi WSW 3.5 mph - 0.01 in   Overcast
7:56 PM 72.0 °F - 64.9 °F 78% 29.91 in 10.0 mi WSW 4.6 mph - N/A   Partly Cloudy
8:56 PM 71.1 °F - 63.0 °F 75% 29.93 in 10.0 mi SW 4.6 mph - N/A   Clear
9:56 PM 70.0 °F - 64.0 °F 81% 29.94 in 10.0 mi SW 4.6 mph - N/A   Clear
10:56 PM 70.0 °F - 64.0 °F 81% 29.94 in 10.0 mi WSW 3.5 mph - N/A   Clear
11:56 PM 69.1 °F - 64.9 °F 87% 29.96 in 10.0 mi West 4.6 mph - N/A   Clear